Location: Miles
(41.4492°N, 81.6087°W)
Time: 08:05:41
(UTC+00:00)

Transit 2A - Pass Details

Date: 13 September 2024
Orbit: 590 x 960 km, 66.7° (Epoch: 09 October)

Event Time Altitude Azimuth Distance (km) Brightness Sun altitude
Rises 22:22:43 0° 148° (SSE) 3,370 9.1 13.3°
Reaches altitude 10° 22:27:19 10° 113° (ESE) 2,537 8.2 12.4°
Maximum altitude 22:28:46 11° 99° (E) 2,499 8.1 12.2°
Drops below altitude 10° 22:30:15 10° 84° (E) 2,592 8.2 11.9°
Sets 22:35:08 0° 51° (NE) 3,606 9.0 11.0°
